Location: Bethera
(33.2010°N, 79.7880°W)
Time: 02:23:27
(UTC-04:00)

Daily predictions for brighter satellites

Satellite Brightness Start Highest point End
(mag) Time Altitude Azimuth Time Altitude Azimuth Time Altitude Azimuth
FALCON 9 R/B 4.4 03:08:16 70° ENE 03:08:16 70° ENE 03:37:21 10° E
ADEOS II 4.2 04:12:03 10° NE 04:15:54 20° E 04:16:28 20° ESE
Cosmos 2322 Rocket 3.9 04:42:36 23° N 04:42:36 23° N 04:44:55 10° N
SL-16 R/B 3.8 04:45:39 24° N 04:45:39 24° N 04:48:08 10° N
Lacrosse 5 3.0 04:44:39 42° ENE 04:44:39 42° ENE 04:48:47 10° ESE
COSMOS 2428 4.3 04:43:13 24° SE 04:45:09 30° ESE 04:50:02 10° NE
Okean O Rocket 3.1 04:45:00 10° NNE 04:47:42 34° NE 04:47:42 34° NE
Cosmos 2184 Rocket 4.4 04:46:04 10° N 04:52:11 60° E 04:58:21 10° SSE
Cosmos 2219 Rocket 4.5 04:52:51 10° SE 04:56:45 20° E 05:00:42 10° NE
Aureole 3 Rocket 4.3 05:03:05 47° S 05:05:24 89° WNW 05:14:18 10° N
USA 215 3.4 05:05:41 10° SE 05:12:12 70° NE 05:18:44 10° NW
Cosmos 2360 Rocket 2.3 05:12:48 58° NW 05:12:48 58° NW 05:17:51 10° NNE
Cosmos 1455 Rocket 3.2 05:12:21 10° N 05:16:45 71° E 05:17:02 68° ESE
CENTAUR R/B 4.3 05:16:52 16° NW 05:16:52 16° NW 05:20:49 10° N
Meteor 1-12 Rocket 4.2 05:15:48 10° N 05:21:28 81° E 05:27:11 10° S
IRS-1C Rocket 3.9 05:16:41 10° N 05:21:57 80° WNW 05:22:50 62° SSW
Delta 142 4.5 05:22:48 51° SW 05:23:36 55° S 05:28:50 10° ESE
Tiangong 2 3.8 05:25:36 14° N 05:25:36 14° N 05:27:09 10° NE
PAYLOAD B 4.1 05:19:53 10° N 05:25:29 74° WNW 05:26:57 50° SW
Cosmos 1570 Rocket 4.0 05:24:08 46° S 05:25:43 82° ESE 05:30:58 10° NNE
Meteor 1-18 Rocket 4.3 05:26:58 51° WNW 05:26:58 51° WNW 05:32:08 10° N
PSLV R/B 4.2 05:30:56 46° E 05:30:56 46° E 05:33:26 10° ESE
Cosmos 1340 4.2 05:34:52 26° NNW 05:34:52 26° NNW 05:36:42 10° N
Cosmos 2333 Rocket 3.7 05:28:29 10° SSE 05:33:33 34° ESE 05:38:40 10° NE
Cosmos 2263 Rocket 3.2 05:30:21 10° NW 05:38:11 27° SSW 05:40:53 10° S
Cosmos 1536 Rocket 3.5 05:36:48 60° WNW 05:36:48 60° WNW 05:41:10 10° N
Meteor 1-31 Rocket 3.7 05:34:58 10° NNE 05:38:38 46° E 05:42:16 10° S
ISS -2.4 05:40:53 27° N 05:42:05 37° NE 05:45:11 10° ESE
Cosmos 1743 3.5 05:38:37 10° N 05:42:24 51° E 05:46:08 10° SSE
Cosmos 2322 4.2 05:42:22 37° W 05:43:02 38° WNW 05:48:22 10° N
Meteor 1-13 Rocket 4.1 05:37:45 10° S 05:43:15 85° E 05:48:49 10° N
ASTRO E2 3.1 05:43:25 47° SSW 05:43:25 47° SSW 05:47:13 10° ESE
EO 1 Del DPAF 3.7 05:44:26 45° NW 05:44:26 45° NW 05:47:21 10° NNW
CZ-2C R/B 3.6 05:41:15 10° S 05:45:53 74° WSW 05:50:27 10° NNW
Cosmos 1610 Rocket 4.4 05:41:04 10° NNW 05:47:16 68° W 05:53:32 10° S
Nadezhda 1 Rocket 4.1 05:45:26 32° SW 05:47:50 47° W 05:53:40 10° N
Lacrosse 4 Rocket 2.2 05:43:59 10° NNW 05:48:07 54° ENE 05:52:19 10° SE
RUBIN 8/PSLV 4.5 05:45:44 10° NNE 05:50:02 85° ESE 05:54:08 11° S
DELTA 2 R/B (1) 3.7 05:49:49 35° W 05:52:05 64° NNW 05:57:37 10° ENE
Hubble Space Telescope 3.4 05:53:34 10° S 05:54:36 11° SSE 05:55:37 10° SE
ADEOS II 2.6 05:50:50 10° N 05:55:41 39° WNW 05:57:26 30° WSW
Cosmos 1975 3.5 05:52:02 10° NNW 05:55:04 34° WNW 05:55:04 34° WNW
PSLV R/B 4.2 05:54:49 10° N 05:58:43 33° WNW 05:59:09 32° W
Cosmos 1777 Rocket 4.3 05:56:32 10° NNW 06:01:30 41° WSW 06:06:25 10° S
Cosmos 2341 Rocket 4.0 05:55:25 10° N 06:01:41 85° E 06:07:53 10° S
Cosmos 2333 4.2 05:58:08 20° SW 06:01:58 61° WNW 06:07:35 10° NNE
NOAA 6 4.3 06:06:26 10° NNE 06:11:33 71° ESE 06:16:38 10° S
OAO 3 Copernicus 4.3 06:11:26 23° W 06:14:34 77° N 06:19:37 10° E
CZ-4B R/B 4.2 06:10:43 10° NNW 06:15:24 28° WNW 06:18:19 18° WSW
Okean 2 3.6 06:19:48 10° S 06:23:55 76° E 06:28:05 10° N
Meteor 1-23 Rocket 4.3 06:18:22 10° S 06:24:11 83° W 06:30:00 10° N
Okean O Rocket 3.6 06:23:32 10° NW 06:25:11 12° WNW 06:25:11 12° WNW
Cosmos 1980 3.8 06:20:11 10° SSW 06:25:49 83° ESE 06:31:29 10° NNE
Lacrosse 5 3.0 06:23:59 15° W 06:26:39 23° WSW 06:30:33 10° S
Cosmos 1814 Rocket 4.0 06:22:58 10° SSW 06:28:11 85° ESE 06:33:23 10° NNE
COSMOS 2428 3.5 06:25:18 14° WSW 06:29:18 30° WNW 06:34:17 10° N
Aureole 2 Rocket 2.7 06:26:40 10° SSW 06:30:31 78° ESE 06:34:05 10° NNE
Cosmos 2285 Rocket 4.0 06:25:33 10° SSW 06:31:56 68° WNW 06:38:22 10° NNE
Okean-O 3.2 06:29:42 10° N 06:33:46 36° WNW 06:37:48 10° SW
COSMO-SKYMED 1 2.9 06:31:38 10° SSE 06:35:55 72° ENE 06:40:15 10° N
Radarsat Rocket 3.9 06:31:38 10° NNE 06:37:35 84° WNW 06:43:24 10° SSW
Cosmos 1238 Rocket 4.1 06:37:42 13° W 06:37:44 13° W 06:39:07 10° NW
Cosmos 2219 Rocket 2.5 06:35:01 10° SW 06:40:18 43° WNW 06:45:37 10° N
ERS-2 3.7 06:38:01 10° NNW 06:40:35 18° WNW 06:43:09 10° WSW
Meteor 2-9 Rocket 4.2 06:37:28 10° NNW 06:43:06 67° W 06:48:32 10° S
GENESIS II 4.2 06:40:11 10° SSW 06:44:14 80° WNW 06:48:19 10° NNE
Meteor 1-15 Rocket 4.4 06:38:25 10° N 06:44:22 88° E 06:50:17 10° S
CZ-4 R/B 4.4 06:42:42 10° NE 06:45:35 19° E 06:48:26 10° SE
Cosmos 1437 2.9 06:43:07 10° SSW 06:46:19 52° W 06:49:32 10° N
GPS 2-04 Rocket1 3.5 06:44:08 10° SW 06:47:47 41° SSE 06:51:15 10° E
GOES 2 Rocket 4.2 06:43:10 10° WSW 06:48:26 56° S 06:55:25 10° ESE
Cosmos 1726 Rocket 3.8 06:45:23 10° N 06:49:50 81° E 06:54:18 10° S
Cosmos 2228 4.5 06:45:53 10° N 06:50:00 43° E 06:54:09 10° SSE
Meteor 1-28 Rocket 3.3 06:47:20 10° SSE 06:51:06 87° ENE 06:54:56 10° N
Cosmos 1892 Rocket 3.5 06:47:21 10° SSW 06:51:40 70° W 06:56:01 10° N
Thor Agena Rocket 3.8 06:47:20 10° S 06:52:11 46° W 06:57:01 10° NNW
Cosmos 1346 4.0 06:49:47 10° S 06:52:32 49° E 06:55:19 10° NNE
Cosmos 1025 Rocket 3.8 06:49:38 10° SW 06:53:29 31° WNW 06:57:23 10° NNW
Cosmos 1844 Rocket 2.9 06:49:04 10° NNW 06:54:23 47° WSW 06:59:41 10° S
Cosmos 1959 Rocket 4.4 06:48:53 10° N 06:54:58 71° W 07:01:03 10° S
USA 215 4.2 06:50:10 10° S 06:55:26 26° WSW 07:00:42 10° WNW
NOSS 0 Rocket 4.2 06:49:58 10° SW 06:55:56 50° WNW 07:01:56 10° N
CZ-2C R/B 4.1 06:51:04 10° NNE 06:55:58 42° E 07:00:49 10° S
